Track STARLINK-2159 now! 10-day predictions STARLINK-2159 is classified as:
1 47745U 21017Z 21110.91667824 .00013944 00000-0 10357-3 0 9996 2 47745 53.0474 307.5283 0001135 89.1642 21.4831 15.73204278 8129